| time (UTC) | temp F | wind direction | speed MPH | gust MPH | rain 1hr in | rain 24hr in | rain mn in | humidity % | barometer mb |
| 20260502220809 | 67 | 33 | 6.0 | 16.0 | 0.00 | 0.00 | 0.00 | 77 | 1010.0 |
| 20260502220251 | 67 | 41 | 5.0 | 14.0 | 0.00 | 0.00 | 0.00 | 77 | 1010.0 |
| 20260502215056 | 67 | 23 | 3.0 | 12.0 | 0.00 | 0.00 | 0.00 | 76 | 1010.4 |
| 20260502213925 | 67 | 326 | 4.0 | 13.0 | 0.00 | 0.00 | 0.00 | 75 | 1010.5 |
| 20260502213420 | 67 | 359 | 5.0 | 13.0 | 0.00 | 0.00 | 0.00 | 75 | 1010.4 |
| 20260502212906 | 67 | 48 | 5.0 | 16.0 | 0.00 | 0.00 | 0.00 | 75 | 1010.4 |
| 20260502212408 | 67 | 54 | 5.0 | 16.0 | 0.00 | 0.00 | 0.00 | 75 | 1010.2 |
| 20260502211852 | 67 | 341 | 6.0 | 16.0 | 0.00 | 0.00 | 0.00 | 75 | 1010.2 |
| 20260502211338 | 67 | 308 | 7.0 | 16.0 | 0.00 | 0.00 | 0.00 | 75 | 1010.3 |
| 20260502210210 | 68 | 58 | 6.0 | 22.0 | 0.00 | 0.00 | 0.00 | 75 | 1010.2 |
| 20260502205652 | 68 | 11 | 6.0 | 22.0 | 0.00 | 0.00 | 0.00 | 75 | 1010.1 |
| 20260502204502 | 68 | 82 | 7.0 | 14.0 | 0.00 | 0.00 | 0.00 | 74 | 1010.7 |
| 20260502204004 | 68 | 76 | 6.0 | 18.0 | 0.00 | 0.00 | 0.00 | 74 | 1010.9 |
| 20260502203458 | 68 | 6 | 6.0 | 18.0 | 0.00 | 0.00 | 0.00 | 74 | 1011.0 |
| 20260502202941 | 68 | 89 | 8.0 | 18.0 | 0.00 | 0.00 | 0.00 | 73 | 1011.0 |
| 20260502202448 | 69 | 37 | 8.0 | 18.0 | 0.00 | 0.00 | 0.00 | 72 | 1011.1 |
| 20260502201316 | 69 | 206 | 7.0 | 16.0 | 0.00 | 0.00 | 0.00 | 71 | 1011.3 |
| 20260502200815 | 69 | 279 | 6.0 | 21.0 | 0.00 | 0.00 | 0.00 | 71 | 1011.3 |
| 20260502200314 | 69 | 7 | 6.0 | 21.0 | 0.00 | 0.00 | 0.00 | 71 | 1011.3 |
| 20260502195820 | 69 | 244 | 6.0 | 21.0 | 0.00 | 0.00 | 0.00 | 71 | 1011.3 |
| 20260502195305 | 69 | 354 | 7.0 | 21.0 | 0.00 | 0.00 | 0.00 | 71 | 1011.1 |
| 20260502194804 | 69 | 11 | 7.0 | 17.0 | 0.00 | 0.00 | 0.00 | 70 | 1010.6 |
| 20260502194308 | 69 | 11 | 7.0 | 17.0 | 0.00 | 0.00 | 0.00 | 70 | 1010.6 |
| 20260502193136 | 69 | 31 | 7.0 | 20.0 | 0.00 | 0.00 | 0.00 | 69 | 1010.9 |
| 20260502192639 | 69 | 30 | 7.0 | 21.0 | 0.00 | 0.00 | 0.00 | 69 | 1010.8 |
| 20260502192145 | 69 | 72 | 7.0 | 21.0 | 0.00 | 0.00 | 0.00 | 69 | 1010.7 |
| 20260502191637 | 69 | 343 | 7.0 | 21.0 | 0.00 | 0.00 | 0.00 | 69 | 1010.8 |
| 20260502191135 | 69 | 57 | 7.0 | 21.0 | 0.00 | 0.00 | 0.00 | 69 | 1010.7 |
| 20260502190009 | 69 | 286 | 7.0 | 19.0 | 0.00 | 0.00 | 0.00 | 68 | 1010.4 |
| 20260502184835 | 70 | 60 | 7.0 | 19.0 | 0.00 | 0.00 | 0.00 | 68 | 1010.3 |
| 20260502184320 | 70 | 341 | 8.0 | 19.0 | 0.00 | 0.00 | 0.00 | 67 | 1010.3 |
| 20260502183827 | 70 | 358 | 6.0 | 16.0 | 0.00 | 0.00 | 0.00 | 66 | 1010.5 |
| 20260502183334 | 70 | 322 | 6.0 | 19.0 | 0.00 | 0.00 | 0.00 | 65 | 1010.3 |
| 20260502182831 | 70 | 324 | 7.0 | 19.0 | 0.00 | 0.00 | 0.00 | 65 | 1010.4 |
| 20260502182326 | 71 | 29 | 6.0 | 19.0 | 0.00 | 0.00 | 0.00 | 64 | 1010.3 |
| 20260502181823 | 71 | 74 | 6.0 | 19.0 | 0.00 | 0.00 | 0.00 | 64 | 1010.4 |
| 20260502181323 | 71 | 54 | 6.0 | 18.0 | 0.00 | 0.00 | 0.00 | 64 | 1010.5 |
| 20260502180157 | 70 | 297 | 3.0 | 11.0 | 0.00 | 0.00 | 0.00 | 64 | 1010.7 |
| 20260502170438 | 71 | 48 | 2.0 | 6.0 | 0.00 | 0.00 | 0.00 | 61 | 1011.3 |
| 20260502163627 | 70 | 60 | 1.0 | 8.0 | 0.00 | 0.00 | 0.00 | 61 | 1011.3 |
| 20260502163116 | 70 | 33 | 1.0 | 8.0 | 0.00 | 0.00 | 0.00 | 61 | 1011.4 |
| 20260502162601 | 70 | 8 | 1.0 | 8.0 | 0.00 | 0.00 | 0.00 | 62 | 1011.6 |
| 20260502162108 | 70 | 0 | 0.0 | 4.0 | 0.00 | 0.00 | 0.00 | 62 | 1011.7 |
| 20260502161602 | 70 | 11 | 0.0 | 4.0 | 0.00 | 0.00 | 0.00 | 62 | 1011.7 |
| 20260502161052 | 70 | 41 | 1.0 | 4.0 | 0.00 | 0.00 | 0.00 | 62 | 1011.7 |
| 20260502160549 | 70 | 356 | 0.0 | 4.0 | 0.00 | 0.00 | 0.00 | 62 | 1011.7 |
| 20260502151937 | 70 | 11 | 1.0 | 5.0 | 0.00 | 0.00 | 0.00 | 61 | 1012.0 |
| 20260502150752 | 70 | 326 | 0.0 | 3.0 | 0.00 | 0.00 | 0.00 | 60 | 1011.9 |
| 20260502150237 | 70 | 33 | 0.0 | 0.0 | 0.00 | 0.00 | 0.00 | 60 | 1012.0 |
| 20260502130522 | 72 | 11 | 1.0 | 6.0 | 0.00 | 0.00 | 0.00 | 53 | 1013.0 |
| 20260502123431 | 71 | 352 | 2.0 | 8.0 | 0.00 | 0.00 | 0.00 | 54 | 1013.2 |
| 20260502122921 | 71 | 324 | 2.0 | 8.0 | 0.00 | 0.00 | 0.00 | 56 | 1013.3 |
| 20260502121807 | 70 | 337 | 0.0 | 5.0 | 0.00 | 0.00 | 0.00 | 58 | 1013.4 |
| 20260502121252 | 70 | 11 | 0.0 | 0.0 | 0.00 | 0.00 | 0.00 | 59 | 1013.4 |
| 20260502120755 | 70 | 2 | 0.0 | 0.0 | 0.00 | 0.00 | 0.00 | 60 | 1013.4 |
| 20260502120241 | 70 | 322 | 0.0 | 0.0 | 0.00 | 0.00 | 0.00 | 60 | 1013.5 |
| 20260502114531 | 72 | 349 | 0.0 | 5.0 | 0.00 | 0.00 | 0.00 | 57 | 1013.6 |
| 20260502113411 | 72 | 342 | 1.0 | 5.0 | 0.00 | 0.00 | 0.00 | 56 | 1013.2 |
| 20260502112853 | 72 | 342 | 1.0 | 5.0 | 0.00 | 0.00 | 0.00 | 56 | 1013.2 |
| 20260502111116 | 72 | 350 | 1.0 | 6.0 | 0.00 | 0.00 | 0.00 | 56 | 1013.4 |
| 20260502110613 | 72 | 29 | 1.0 | 5.0 | 0.00 | 0.00 | 0.00 | 56 | 1013.5 |
| 20260502110105 | 72 | 18 | 2.0 | 5.0 | 0.00 | 0.00 | 0.00 | 56 | 1013.5 |
| 20260502105559 | 72 | 357 | 1.0 | 5.0 | 0.00 | 0.00 | 0.00 | 56 | 1013.4 |
| 20260502105045 | 72 | 319 | 1.0 | 5.0 | 0.00 | 0.00 | 0.00 | 56 | 1013.4 |
| 20260502104126 | 72 | 18 | 1.0 | 6.0 | 0.00 | 0.00 | 0.00 | 56 | 1013.4 |
| 20260502102958 | 72 | 56 | 1.0 | 8.0 | 0.00 | 0.00 | 0.00 | 55 | 1013.4 |
| 20260502102452 | 72 | 348 | 2.0 | 8.0 | 0.00 | 0.00 | 0.00 | 55 | 1013.4 |
| 20260502101941 | 72 | 58 | 2.0 | 8.0 | 0.00 | 0.00 | 0.00 | 55 | 1013.4 |
| 20260502101440 | 72 | 37 | 2.0 | 8.0 | 0.00 | 0.00 | 0.00 | 55 | 1013.4 |
| 20260502100323 | 72 | 41 | 1.0 | 4.0 | 0.00 | 0.00 | 0.00 | 55 | 1013.4 |
| 20260502091517 | 73 | 34 | 0.0 | 2.0 | 0.00 | 0.00 | 0.00 | 53 | 1013.6 |
| 20260502091012 | 73 | 32 | 0.0 | 0.0 | 0.00 | 0.00 | 0.00 | 52 | 1013.6 |
| 20260502090457 | 73 | 32 | 0.0 | 0.0 | 0.00 | 0.00 | 0.00 | 52 | 1013.7 |
| 20260502071219 | 76 | 316 | 2.0 | 8.0 | 0.00 | 0.00 | 0.00 | 49 | 1013.3 |
| 20260502070709 | 76 | 56 | 2.0 | 8.0 | 0.00 | 0.00 | 0.00 | 49 | 1013.2 |
| 20260502070154 | 76 | 49 | 3.0 | 12.0 | 0.00 | 0.00 | 0.00 | 49 | 1013.2 |
| 20260502065644 | 76 | 35 | 4.0 | 12.0 | 0.00 | 0.00 | 0.00 | 49 | 1013.2 |
| 20260502065144 | 76 | 340 | 4.0 | 12.0 | 0.00 | 0.00 | 0.00 | 48 | 1013.1 |
| 20260502064632 | 76 | 289 | 3.0 | 12.0 | 0.00 | 0.00 | 0.00 | 48 | 1013.1 |
| 20260502063456 | 76 | 21 | 4.0 | 12.0 | 0.00 | 0.00 | 0.00 | 48 | 1013.1 |
| 20260502062324 | 77 | 40 | 4.0 | 15.0 | 0.00 | 0.00 | 0.00 | 47 | 1013.1 |
| 20260502061814 | 77 | 21 | 4.0 | 15.0 | 0.00 | 0.00 | 0.00 | 46 | 1013.1 |
| 20260502061258 | 77 | 13 | 4.0 | 15.0 | 0.00 | 0.00 | 0.00 | 46 | 1013.2 |
| 20260502060745 | 77 | 18 | 3.0 | 10.0 | 0.00 | 0.00 | 0.00 | 47 | 1013.1 |
| 20260502060255 | 77 | 343 | 3.0 | 10.0 | 0.00 | 0.00 | 0.00 | 47 | 1013.2 |
| 20260502055741 | 77 | 317 | 4.0 | 10.0 | 0.00 | 0.00 | 0.00 | 47 | 1013.3 |
| 20260502055234 | 77 | 80 | 3.0 | 10.0 | 0.00 | 0.00 | 0.00 | 47 | 1013.3 |
| 20260502054723 | 77 | 49 | 3.0 | 10.0 | 0.00 | 0.00 | 0.00 | 47 | 1013.4 |
| 20260502054220 | 77 | 67 | 3.0 | 10.0 | 0.00 | 0.00 | 0.00 | 46 | 1013.5 |
| 20260502053720 | 77 | 333 | 3.0 | 10.0 | 0.00 | 0.00 | 0.00 | 47 | 1013.5 |
| 20260502053216 | 77 | 66 | 3.0 | 10.0 | 0.00 | 0.00 | 0.00 | 47 | 1013.5 |
| 20260502052106 | 76 | 23 | 3.0 | 8.0 | 0.00 | 0.00 | 0.00 | 49 | 1013.5 |
| 20260502050953 | 76 | 57 | 3.0 | 9.0 | 0.00 | 0.00 | 0.00 | 49 | 1013.6 |
| 20260502045819 | 76 | 323 | 4.0 | 12.0 | 0.00 | 0.00 | 0.00 | 49 | 1013.7 |
| 20260502045306 | 76 | 59 | 4.0 | 12.0 | 0.00 | 0.00 | 0.00 | 49 | 1013.7 |
| 20260502044801 | 76 | 322 | 3.0 | 12.0 | 0.00 | 0.00 | 0.00 | 49 | 1013.8 |
| 20260502044310 | 76 | 1 | 3.0 | 10.0 | 0.00 | 0.00 | 0.00 | 50 | 1013.8 |
| 20260502043802 | 76 | 334 | 3.0 | 10.0 | 0.00 | 0.00 | 0.00 | 49 | 1013.9 |
| 20260502042632 | 76 | 11 | 4.0 | 9.0 | 0.00 | 0.00 | 0.00 | 50 | 1014.0 |
| 20260502041501 | 75 | 343 | 2.0 | 9.0 | 0.00 | 0.00 | 0.00 | 51 | 1014.1 |
| 20260502040949 | 75 | 338 | 2.0 | 9.0 | 0.00 | 0.00 | 0.00 | 52 | 1014.2 |
| 20260502040436 | 75 | 6 | 1.0 | 6.0 | 0.00 | 0.00 | 0.00 | 54 | 1014.3 |
| 20260502035945 | 74 | 54 | 1.0 | 6.0 | 0.00 | 0.00 | 0.00 | 54 | 1014.4 |
| 20260502035435 | 74 | 35 | 1.0 | 6.0 | 0.00 | 0.00 | 0.00 | 55 | 1014.4 |
| 20260502034915 | 74 | 26 | 2.0 | 7.0 | 0.00 | 0.00 | 0.00 | 54 | 1014.4 |
| 20260502033734 | 74 | 354 | 2.0 | 7.0 | 0.00 | 0.00 | 0.00 | 54 | 1014.6 |
| 20260502033223 | 74 | 359 | 2.0 | 7.0 | 0.00 | 0.00 | 0.00 | 54 | 1014.8 |
| 20260502032710 | 74 | 355 | 2.0 | 10.0 | 0.00 | 0.00 | 0.00 | 54 | 1014.9 |
| 20260502032204 | 74 | 18 | 3.0 | 10.0 | 0.00 | 0.00 | 0.00 | 54 | 1015.0 |
| 20260502031102 | 74 | 133 | 3.0 | 9.0 | 0.00 | 0.00 | 0.00 | 54 | 1015.2 |
| 20260502030602 | 74 | 47 | 3.0 | 11.0 | 0.00 | 0.00 | 0.00 | 54 | 1015.3 |
| 20260502030056 | 74 | 47 | 3.0 | 11.0 | 0.00 | 0.00 | 0.00 | 54 | 1015.4 |
| 20260502025552 | 74 | 328 | 4.0 | 11.0 | 0.00 | 0.00 | 0.00 | 54 | 1015.5 |
| 20260502025043 | 74 | 21 | 4.0 | 11.0 | 0.00 | 0.00 | 0.00 | 54 | 1015.7 |
| 20260502023902 | 74 | 53 | 4.0 | 13.0 | 0.00 | 0.00 | 0.00 | 54 | 1016.0 |
| 20260502023357 | 73 | 32 | 5.0 | 13.0 | 0.00 | 0.00 | 0.00 | 54 | 1016.0 |
| 20260502022231 | 73 | 351 | 4.0 | 13.0 | 0.00 | 0.00 | 0.00 | 54 | 1016.1 |
| 20260502021716 | 73 | 46 | 4.0 | 13.0 | 0.00 | 0.00 | 0.00 | 54 | 1016.2 |
| 20260502021223 | 73 | 40 | 4.0 | 13.0 | 0.00 | 0.00 | 0.00 | 55 | 1016.3 |
| 20260502020107 | 72 | 51 | 5.0 | 13.0 | 0.00 | 0.00 | 0.00 | 55 | 1016.4 |
| 20260502015610 | 72 | 96 | 5.0 | 13.0 | 0.00 | 0.00 | 0.00 | 55 | 1016.5 |
| 20260502015053 | 72 | 22 | 5.0 | 13.0 | 0.00 | 0.00 | 0.00 | 55 | 1016.6 |
| 20260502014555 | 72 | 32 | 5.0 | 13.0 | 0.00 | 0.00 | 0.00 | 55 | 1016.7 |
| 20260502014042 | 72 | 343 | 5.0 | 13.0 | 0.00 | 0.00 | 0.00 | 55 | 1016.9 |
| 20260502013545 | 72 | 2 | 4.0 | 13.0 | 0.00 | 0.00 | 0.00 | 56 | 1016.9 |
| 20260502013041 | 72 | 32 | 3.0 | 12.0 | 0.00 | 0.00 | 0.00 | 56 | 1016.9 |
| 20260502012547 | 72 | 317 | 4.0 | 12.0 | 0.00 | 0.00 | 0.00 | 56 | 1017.0 |
| 20260502012045 | 72 | 344 | 3.0 | 12.0 | 0.00 | 0.00 | 0.00 | 55 | 1017.0 |
| 20260502010930 | 72 | 29 | 4.0 | 10.0 | 0.00 | 0.00 | 0.00 | 56 | 1017.2 |
| 20260502010416 | 72 | 309 | 3.0 | 9.0 | 0.00 | 0.00 | 0.00 | 56 | 1017.4 |
| 20260502005914 | 71 | 56 | 3.0 | 9.0 | 0.00 | 0.00 | 0.00 | 56 | 1017.4 |
| 20260502005410 | 71 | 16 | 3.0 | 10.0 | 0.00 | 0.00 | 0.00 | 56 | 1017.5 |
| 20260502004229 | 71 | 84 | 4.0 | 14.0 | 0.00 | 0.00 | 0.00 | 56 | 1017.7 |
| 20260502003049 | 71 | 331 | 4.0 | 14.0 | 0.00 | 0.00 | 0.00 | 56 | 1017.7 |
| 20260502002536 | 71 | 35 | 4.0 | 14.0 | 0.00 | 0.00 | 0.00 | 55 | 1017.7 |
| 20260502002041 | 71 | 353 | 5.0 | 11.0 | 0.00 | 0.00 | 0.00 | 56 | 1017.7 |
| 20260502001529 | 71 | 318 | 4.0 | 11.0 | 0.00 | 0.00 | 0.00 | 56 | 1017.7 |
| 20260502000402 | 70 | 16 | 4.0 | 11.0 | 0.00 | 0.00 | 0.00 | 57 | 1017.9 |
| 20260501235249 | 70 | 49 | 3.0 | 9.0 | 0.00 | 0.00 | 0.00 | 57 | 1018.0 |
| 20260501234730 | 70 | 42 | 3.0 | 10.0 | 0.00 | 0.00 | 0.00 | 57 | 1017.9 |
| 20260501234233 | 70 | 344 | 3.0 | 10.0 | 0.00 | 0.00 | 0.00 | 57 | 1018.0 |
| 20260501233742 | 70 | 246 | 2.0 | 10.0 | 0.00 | 0.00 | 0.00 | 57 | 1018.1 |
| 20260501233227 | 70 | 54 | 2.0 | 10.0 | 0.00 | 0.00 | 0.00 | 58 | 1018.1 |
| 20260501231457 | 69 | 356 | 1.0 | 7.0 | 0.00 | 0.00 | 0.00 | 58 | 1018.2 |
| 20260501231002 | 69 | 28 | 1.0 | 7.0 | 0.00 | 0.00 | 0.00 | 58 | 1018.3 |
| 20260501225834 | 69 | 30 | 1.0 | 7.0 | 0.00 | 0.00 | 0.00 | 58 | 1018.3 |
| 20260501225335 | 69 | 321 | 1.0 | 7.0 | 0.00 | 0.00 | 0.00 | 59 | 1018.4 |
| 20260501224842 | 69 | 334 | 2.0 | 8.0 | 0.00 | 0.00 | 0.00 | 58 | 1018.3 |
| 20260501224342 | 69 | 343 | 3.0 | 8.0 | 0.00 | 0.00 | 0.00 | 58 | 1018.3 |
| 20260501223831 | 69 | 20 | 3.0 | 9.0 | 0.00 | 0.00 | 0.00 | 58 | 1018.2 |
| 20260501222636 | 69 | 18 | 3.0 | 9.0 | 0.00 | 0.00 | 0.00 | 58 | 1018.2 |
| 20260501222145 | 69 | 10 | 3.0 | 9.0 | 0.00 | 0.00 | 0.00 | 58 | 1018.2 |
| 20260501221628 | 69 | 43 | 3.0 | 8.0 | 0.00 | 0.00 | 0.00 | 58 | 1018.1 |